Location: Newark
(44.6768°N, 22.5302°E)
Time: 03:23:11
(UTC+00:00)

AO-92 - Visible Passes

Search period start: 28 June 2022 00:00
Search period end: 08 July 2022 00:00
Orbit: 472 x 481 km, 97.4° (Epoch: 27 June)

Date Brightness Start Highest point End Pass type
(mag) Time Alt. Az. Time Alt. Az. Time Alt. Az.
28 Jun ? 19:31:27 11° ESE 19:33:34 17° ENE 19:35:59 10° NNE visible
28 Jun ? 21:05:39 27° SW 21:06:38 32° W 21:09:52 10° NNW visible
29 Jun ? 20:38:42 39° S 20:39:52 72° WSW 20:43:26 10° NNW visible
30 Jun ? 20:11:44 29° SE 20:13:12 49° ENE 20:16:40 10° N visible
30 Jun ? 21:45:56 10° WSW 21:46:47 11° W 21:47:49 10° WNW visible
01 Jul ? 19:44:45 16° ESE 19:46:37 24° ENE 19:49:32 10° NNE visible
01 Jul ? 21:18:57 20° WSW 21:19:51 22° W 21:22:42 10° NW visible
02 Jul ? 19:18:33 10° E 19:20:07 13° ENE 19:21:41 10° NE visible
02 Jul ? 20:51:58 35° SSW 20:53:00 48° W 20:56:28 10° NNW visible
03 Jul ? 20:24:58 37° SSE 20:26:14 74° ENE 20:29:48 10° N visible
04 Jul ? 19:57:57 22° ESE 19:59:33 33° ENE 20:02:48 10° N visible
04 Jul ? 21:32:09 15° WSW 21:32:57 16° W 21:35:14 10° NW visible
05 Jul ? 19:30:55 11° ESE 19:32:58 17° ENE 19:35:21 10° NNE visible
05 Jul ? 21:05:07 28° SW 21:06:01 33° W 21:09:16 10° NNW visible
06 Jul ? 20:38:04 42° S 20:39:09 75° WSW 20:42:43 10° NNW visible
07 Jul ? 20:11:01 30° SE 20:12:22 48° ENE 20:15:50 10° N visible
07 Jul ? 21:45:13 11° WSW 21:45:57 11° W 21:47:09 10° WNW visible
